Wind_Speed
42 38 50 42 40 33 33 43 39 41 29 26 31 34 31 32 32 30 27 25 24 21 19 19 20 20 20 19 18 17 17 16 16 15 15 15 17 15 15 16 18 20 21 22
32 36 37 39 37 36 34 41 35 42 41 34 35 37 37 32 32 31 29 27 25 24 23 23 22 21 21 20 20 20 19 18 17 19 18 21 18 16 18 20 16 22 21 21
42 32 33 34 41 41 40 43 42 34 36 31 32 38 41 41 34 32 33 30 28 26 24 23 23 22 21 21 20 21 21 20 21 22 23 20 15 15 22 20 22 22 20 22
24 32 34 41 40 40 36 40 39 40 29 26 33 19 42 41 39 40 32 29 27 27 26 25 25 22 21 22 24 24 25 25 24 26 24 22 24 22 27 28 26 21 21 23
16 27 36 43 43 39 21 29 34 41 33 23 34 16 34 39 46 41 38 33 28 26 27 26 26 23 23 25 26 26 26 26 27 29 25 22 26 24 26 27 24 22 23 23
16 29 28 32 40 41 25 18 25 36 27 13 30 36 30 41 37 37 39 34 31 28 28 28 28 25 25 26 28 28 27 27 27 29 26 22 27 26 30 26 23 23 23 22
20 26 31 32 34 30 35 27 8 5 9 8 23 21 29 19 29 33 27 29 31 28 29 30 28 26 26 29 31 30 28 26 28 30 27 29 24 30 28 25 23 22 21 21
16 10 26 32 44 28 37 31 12 8 7 6 10 13 16 34 10 25 26 29 24 30 31 29 27 28 30 33 32 30 29 28 29 27 28 25 32 29 28 25 23 21 21 19
12 7 32 33 44 34 37 28 20 5 5 5 10 13 9 19 27 31 20 19 27 30 28 28 30 31 34 33 29 28 28 26 25 24 26 29 29 29 28 25 22 21 19 17
15 9 22 24 32 34 37 33 16 5 4 3 4 7 13 22 24 20 21 23 24 25 25 27 30 31 29 26 25 24 22 21 22 23 24 26 28 28 26 24 21 19 18 16
16 12 17 20 24 31 35 34 16 14 5 4 4 6 11 16 15 14 17 22 23 25 27 27 27 26 24 24 21 18 18 19 20 21 23 25 26 25 23 21 19 18 17 17
24 14 20 24 20 36 36 38 35 19 8 4 2 1 16 21 19 18 19 20 23 25 26 27 25 23 22 20 18 17 18 19 20 21 21 22 22 22 20 18 18 17 17 17
31 12 12 11 12 24 34 42 44 35 14 24 8 7 17 10 6 8 10 13 16 22 23 21 20 20 18 16 16 16 18 19 18 17 17 19 20 19 18 18 17 18 18 16
30 19 11 10 7 22 38 40 40 41 25 18 38 12 14 11 11 12 10 10 14 18 19 19 19 17 16 15 16 16 16 16 14 14 17 19 18 19 19 19 18 19 17 16
20 16 14 11 5 15 32 39 39 44 46 30 41 39 32 18 14 11 9 12 15 17 19 19 18 16 16 16 16 14 13 14 14 15 17 18 18 18 18 18 18 18 17 17
17 9 11 8 11 7 13 28 43 41 46 51 32 25 21 23 29 28 25 24 23 19 19 18 17 16 17 16 14 14 14 15 14 14 16 16 17 17 18 19 19 18 17 18
19 15 13 8 12 9 16 28 26 34 49 48 52 47 42 39 34 32 21 20 21 22 20 20 20 21 20 19 18 15 17 18 16 16 17 18 19 18 19 20 19 18 17 19
20 18 12 5 11 4 13 10 14 24 28 31 33 33 32 33 32 30 32 33 31 28 26 26 27 25 24 21 17 18 19 19 19 17 19 20 19 19 22 21 19 18 18 19
26 24 8 9 16 10 6 10 14 13 18 19 26 28 28 26 26 33 32 35 38 39 37 28 31 29 30 25 21 22 22 23 19 18 19 21 21 22 24 22 20 21 21 19
19 25 23 13 5 7 7 7 4 11 12 10 16 17 17 20 35 32 25 26 35 39 39 37 35 33 35 32 29 25 25 22 19 18 19 22 23 25 25 24 25 25 24 26
2 11 25 18 9 5 11 13 9 7 6 3 1 1 4 15 24 24 26 28 30 34 35 34 37 40 40 36 31 29 27 21 19 21 22 23 24 26 27 29 28 28 30 32
4 3 5 16 13 9 6 7 11 7 5 7 5 5 3 4 7 12 20 26 25 22 27 33 36 35 34 34 30 27 23 21 21 20 20 20 23 26 28 30 30 33 36 38
8 9 9 6 6 13 10 17 20 11 8 8 9 6 3 1 4 4 8 13 17 17 19 22 25 28 30 29 25 24 23 21 21 19 19 21 23 25 28 31 34 37 40 42
16 13 18 15 18 12 13 18 18 17 13 13 13 15 12 9 4 2 3 6 11 13 13 14 14 15 25 24 22 20 20 19 15 14 15 18 21 26 30 34 36 39 40 39
19 17 20 23 22 18 14 15 10 16 17 18 14 12 11 10 8 4 4 6 10 10 11 11 15 16 18 20 19 18 15 11 11 11 12 16 20 24 27 30 32 35 38 40
32 30 28 27 10 11 13 15 14 13 14 17 16 11 10 9 8 7 7 6 7 9 11 12 13 15 16 15 14 13 10 9 11 13 16 20 23 26 29 32 34 36 37 37
Wind_Direction
187 189 204 210 206 209 212 211 215 206 208 211 218 217 218 223 221 220 223 224 221 220 214 217 221 222 228 233 239 242 244 247 249 254 259 271 278 272 287 289 301 305 308 316
209 214 216 219 211 204 208 201 197 207 213 223 223 225 220 222 224 228 230 230 227 224 222 225 228 233 238 241 244 248 251 249 250 252 258 266 292 290 290 304 294 296 304 307
198 207 204 213 205 205 213 209 206 205 210 222 224 228 223 226 226 229 230 229 229 229 227 230 235 240 243 247 253 254 255 251 250 255 262 278 285 278 273 285 291 296 296 302
192 207 205 195 197 196 206 214 219 215 201 220 223 237 232 228 233 233 232 227 226 229 230 231 235 240 250 254 255 255 254 253 253 253 262 272 257 273 276 291 289 289 288 293
181 185 194 201 188 191 186 197 209 203 197 227 227 227 234 233 232 231 232 232 232 232 232 233 236 241 256 260 260 258 255 254 253 261 258 261 265 262 290 289 281 274 281 286
174 177 180 194 203 189 173 169 192 206 209 222 222 216 237 233 232 238 241 237 234 232 234 234 234 248 263 265 268 267 264 258 254 257 255 262 266 269 281 281 271 271 274 280
189 169 181 187 179 184 188 171 131 178 188 217 210 213 222 221 229 236 232 228 231 230 235 236 242 258 260 266 266 266 262 259 254 255 255 251 258 273 276 277 269 267 272 276
157 180 172 186 186 176 172 177 171 182 196 177 180 223 215 218 170 214 220 226 224 232 238 240 248 253 256 262 262 260 258 255 253 246 249 257 263 270 275 275 266 263 261 269
156 152 192 183 190 172 181 190 194 119 124 169 202 228 145 201 220 230 233 220 230 235 239 241 245 250 257 260 257 255 255 254 257 256 252 258 266 270 272 268 258 252 258 258
171 133 183 185 188 187 183 186 187 214 129 212 240 220 211 227 226 227 227 231 231 233 235 242 248 253 254 251 250 251 253 254 254 255 258 260 264 266 268 261 251 249 251 245
185 183 171 186 194 186 181 190 187 195 222 174 156 228 174 200 199 183 203 220 226 234 239 243 245 242 239 239 244 247 251 253 255 258 260 261 263 263 260 251 243 244 243 236
184 177 157 182 198 204 201 200 196 195 202 207 77 95 176 186 194 202 212 226 234 242 244 239 235 231 231 236 239 239 246 254 259 260 263 266 266 262 254 242 239 239 234 236
196 176 139 181 194 199 208 213 210 214 211 227 214 225 205 188 194 200 218 232 242 246 240 231 234 238 232 222 229 243 251 255 258 263 268 268 263 258 245 236 234 234 231 243
199 189 181 188 203 203 199 211 213 209 217 225 231 184 173 174 194 208 216 237 245 242 236 229 221 217 220 228 238 247 253 256 258 265 267 265 259 249 236 230 230 227 237 254
202 191 167 175 130 204 219 212 211 213 223 217 245 234 227 221 223 230 243 244 240 235 227 222 217 217 228 239 242 248 257 256 258 265 264 261 255 244 235 232 227 231 248 261
198 180 190 191 216 216 214 222 219 218 221 227 230 223 226 230 240 254 258 262 249 238 220 220 227 247 250 245 254 260 260 248 261 263 261 261 255 245 235 226 226 240 258 274
207 197 187 218 222 256 262 237 229 231 233 236 243 248 255 255 255 261 248 244 245 226 222 234 250 247 250 260 263 259 245 252 269 265 257 250 245 239 230 224 235 246 259 279
204 195 184 160 167 228 241 248 246 251 250 249 257 262 261 262 260 254 242 239 238 227 238 248 254 256 258 259 259 255 254 264 265 262 253 249 246 239 228 228 237 252 269 281
216 211 181 177 203 277 245 253 246 261 260 256 261 261 262 259 256 245 242 241 233 238 244 249 246 246 254 256 260 257 260 259 265 260 254 250 244 235 229 233 241 254 269 285
216 223 208 184 188 208 151 85 289 246 267 270 258 254 248 243 248 248 244 247 241 238 242 241 240 247 253 257 261 257 257 262 262 254 247 245 240 232 230 238 248 259 272 285
67 214 211 208 211 240 232 252 273 193 203 211 180 202 246 249 255 254 247 248 247 242 242 243 245 247 247 251 254 254 251 257 252 246 240 238 239 235 239 243 255 265 275 285
237 271 230 212 213 239 216 195 207 216 236 248 235 221 234 273 284 259 245 246 243 245 243 243 242 244 241 244 246 239 243 248 250 249 244 241 240 238 242 251 262 272 279 286
227 213 253 251 233 230 214 208 214 221 219 208 216 212 215 304 309 278 247 239 228 233 243 243 241 239 239 234 231 237 244 250 256 255 242 240 242 245 252 259 266 273 280 286
247 236 233 251 275 277 279 222 216 222 228 223 223 244 253 273 307 293 200 178 200 217 222 227 226 218 218 223 223 228 239 248 244 235 237 242 249 255 260 266 272 277 281 283
253 248 248 253 254 261 262 279 290 281 241 230 243 260 270 242 227 225 219 197 208 210 211 205 202 204 205 213 221 235 236 223 231 243 250 252 256 259 263 267 272 276 281 286
254 254 252 255 271 249 233 247 266 293 312 251 228 229 234 222 192 176 171 184 198 189 179 175 175 184 199 206 201 200 211 230 248 262 268 270 270 272 275 279 284 287 286 287
Height
3050 3058 3061 3069 3078 3087 3095 3103 3111 3117 3122 3126 3129 3132 3135 3140 3142 3147 3150 3153 3156 3160 3163 3164 3166 3167 3169 3171 3172 3174 3175 3177 3178 3179 3180 3181 3181 3181 3181 3181 3180 3179 3178 3176
3052 3054 3062 3071 3079 3086 3091 3099 3104 3112 3117 3122 3124 3128 3132 3133 3137 3142 3145 3148 3152 3155 3158 3160 3161 3163 3166 3168 3169 3170 3172 3173 3174 3175 3175 3175 3176 3176 3176 3176 3175 3175 3174 3173
3046 3051 3060 3067 3074 3080 3085 3090 3097 3107 3113 3117 3121 3123 3124 3128 3131 3135 3138 3143 3146 3149 3153 3155 3157 3160 3162 3163 3165 3166 3167 3168 3169 3170 3170 3170 3172 3173 3170 3171 3171 3171 3170 3169
3044 3046 3058 3062 3070 3076 3081 3087 3096 3101 3107 3113 3118 3113 3115 3119 3124 3128 3133 3136 3140 3143 3147 3150 3152 3155 3157 3158 3159 3160 3161 3163 3164 3165 3165 3166 3167 3167 3166 3166 3165 3166 3165 3165
3041 3048 3053 3057 3065 3073 3079 3086 3093 3099 3105 3111 3112 3114 3107 3112 3114 3119 3125 3131 3134 3138 3141 3145 3147 3150 3151 3152 3153 3154 3155 3156 3158 3158 3160 3161 3161 3162 3160 3161 3160 3160 3160 3161
3039 3045 3050 3054 3061 3069 3077 3085 3093 3101 3107 3110 3105 3107 3098 3101 3106 3113 3119 3124 3129 3132 3135 3138 3141 3144 3145 3145 3146 3147 3148 3150 3151 3152 3153 3154 3156 3155 3156 3155 3155 3156 3157 3157
3039 3042 3044 3050 3057 3067 3074 3082 3094 3105 3104 3093 3096 3098 3090 3095 3100 3106 3112 3116 3121 3125 3128 3132 3135 3137 3138 3139 3139 3140 3142 3144 3145 3146 3147 3149 3148 3149 3149 3149 3149 3151 3152 3152
3034 3043 3043 3048 3053 3057 3069 3074 3075 3083 3082 3086 3090 3082 3081 3092 3094 3099 3104 3109 3113 3117 3122 3126 3128 3130 3131 3131 3132 3134 3135 3136 3137 3138 3140 3141 3142 3142 3142 3142 3142 3145 3146 3147
3031 3036 3042 3046 3053 3060 3063 3068 3072 3073 3077 3081 3078 3078 3081 3083 3090 3096 3100 3104 3108 3112 3116 3118 3121 3123 3123 3124 3126 3127 3128 3129 3130 3131 3133 3135 3136 3136 3136 3136 3137 3139 3141 3142
3026 3035 3039 3045 3051 3055 3058 3066 3071 3072 3077 3079 3072 3073 3074 3079 3085 3090 3094 3099 3103 3106 3109 3111 3113 3115 3116 3117 3118 3120 3122 3123 3124 3126 3128 3128 3129 3129 3129 3131 3133 3134 3135 3136
3025 3031 3040 3042 3046 3048 3053 3057 3064 3068 3069 3067 3073 3067 3068 3074 3079 3084 3088 3092 3096 3099 3101 3102 3105 3107 3109 3110 3113 3115 3117 3118 3119 3121 3122 3123 3123 3124 3125 3126 3128 3130 3131 3132
3024 3028 3035 3039 3040 3046 3049 3053 3059 3064 3064 3065 3066 3063 3066 3070 3074 3080 3084 3087 3089 3091 3094 3095 3098 3100 3103 3106 3108 3110 3112 3113 3114 3115 3115 3117 3118 3119 3120 3123 3125 3127 3127 3129
3022 3027 3035 3042 3045 3042 3044 3050 3054 3058 3061 3058 3064 3061 3067 3069 3073 3077 3080 3082 3084 3086 3088 3090 3093 3096 3099 3102 3104 3105 3107 3108 3109 3110 3111 3112 3112 3114 3116 3118 3120 3122 3123 3125
3018 3022 3025 3028 3027 3030 3036 3042 3048 3053 3055 3053 3049 3059 3065 3066 3070 3073 3076 3078 3080 3082 3084 3086 3088 3091 3094 3098 3100 3101 3102 3103 3104 3105 3106 3106 3108 3109 3112 3114 3116 3118 3120 3122
3017 3019 3021 3025 3026 3030 3032 3036 3039 3039 3042 3049 3046 3053 3060 3063 3067 3069 3072 3075 3077 3079 3080 3082 3084 3087 3091 3093 3095 3095 3097 3098 3099 3100 3101 3101 3103 3105 3108 3111 3113 3114 3117 3116
3014 3017 3020 3025 3027 3030 3032 3033 3035 3036 3038 3039 3040 3045 3053 3057 3062 3065 3067 3069 3072 3073 3075 3078 3080 3083 3085 3087 3088 3089 3091 3093 3094 3095 3096 3097 3100 3102 3104 3105 3108 3110 3112 3113
3013 3017 3020 3023 3026 3029 3028 3025 3027 3030 3032 3033 3030 3040 3046 3049 3054 3059 3062 3062 3065 3067 3069 3073 3075 3076 3079 3081 3082 3084 3085 3087 3089 3090 3090 3092 3094 3094 3098 3101 3105 3105 3103 3106
3011 3015 3019 3021 3026 3028 3018 3019 3021 3024 3027 3028 3027 3030 3036 3039 3044 3047 3051 3055 3057 3060 3063 3066 3068 3069 3073 3074 3077 3078 3080 3083 3084 3086 3086 3088 3090 3092 3093 3095 3098 3100 3099 3100
3007 3011 3015 3020 3020 3018 3015 3015 3020 3021 3024 3024 3021 3024 3027 3032 3032 3032 3040 3044 3048 3052 3056 3058 3060 3062 3066 3068 3070 3073 3074 3076 3079 3080 3081 3083 3084 3086 3091 3090 3091 3093 3094 3093
3006 3009 3013 3015 3017 3017 3014 3014 3016 3020 3020 3017 3016 3018 3019 3021 3018 3026 3033 3034 3036 3042 3045 3049 3052 3055 3059 3062 3064 3065 3068 3071 3074 3074 3075 3076 3077 3080 3083 3085 3086 3087 3087 3088
3004 3006 3008 3010 3011 3012 3013 3014 3015 3018 3021 3014 3014 3014 3013 3015 3017 3020 3022 3025 3028 3032 3036 3040 3044 3048 3052 3054 3057 3060 3063 3065 3067 3067 3067 3067 3071 3074 3077 3078 3079 3081 3081 3079
3004 3005 3006 3007 3008 3010 3008 3009 3013 3013 3012 3013 3012 3012 3011 3012 3012 3013 3014 3017 3020 3023 3028 3031 3035 3039 3041 3046 3049 3055 3057 3059 3062 3061 3063 3063 3067 3069 3071 3073 3074 3074 3073 3071
3002 3003 3003 3008 3004 3004 3003 3004 3006 3008 3010 3011 3011 3010 3010 3009 3009 3009 3008 3009 3014 3018 3022 3023 3027 3030 3034 3040 3045 3050 3050 3052 3057 3056 3055 3060 3063 3064 3065 3065 3066 3065 3063 3061
2998 3000 2998 3000 3000 3001 3002 3002 3003 3004 3006 3006 3007 3006 3006 3008 3009 3009 3007 3006 3011 3014 3015 3018 3020 3023 3030 3035 3041 3043 3045 3049 3049 3050 3048 3052 3057 3059 3058 3058 3057 3056 3054 3051
2994 2994 2994 2993 2995 2997 2999 3001 3001 3000 2999 3000 3002 3003 3004 3005 3005 3006 3006 3005 3009 3010 3013 3016 3019 3023 3028 3032 3036 3039 3042 3042 3044 3046 3045 3048 3049 3050 3050 3048 3046 3046 3045 3042
2985 2986 2988 2988 2992 2992 2994 2994 2994 2994 2996 2997 2997 2998 3000 3001 3002 3002 3003 3005 3009 3011 3013 3015 3017 3023 3025 3029 3031 3034 3038 3039 3040 3040 3041 3041 3042 3043 3042 3041 3036 3036 3034 3030